Location: Saratoga Springs
(43.0831°N, 73.7850°W)
Time: 16:57:24
(UTC-04:00)

Tiros 1 despin weight - Pass Details

Date: 18 April 2024
Orbit: 578 x 620 km, 48.2° (Epoch: 29 May)

Event Time Altitude Azimuth Distance (km) Brightness Sun altitude
Rises 17:00:21 0° 281° (W) 2,856 ? 28.3°
Reaches altitude 10° 17:02:44 10° 288° (WNW) 1,960 ? 27.9°
Maximum altitude 17:07:02 43° 360° (N) 868 ? 27.1°
Drops below altitude 10° 17:11:23 10° 72° (ENE) 1,981 ? 26.4°
Sets 17:13:48 0° 80° (E) 2,891 ? 25.9°
